Etusivu
METAR-TAF:

METAR-TAF

Lentoasemat :

Draugen, Norja

Leveyspiiri: 64-21-20N, Pituuspiiri: 007-47-30E, korkeus merenpinnasta: 0 m

Tämänhetkinen sää

Tämä raportti tehtiin 30 minuuttia sitten, kello 13.50 UTC
Tuuli 11 kn kaakosta
Lämpötila 2°C
Kosteus 75%
Ilmanpaine 1005 hPa

METAR: ENDR 221350Z AUTO 14011KT 02/M02 Q1005

Aika: 15:20 (14:20 UTC)


TAF: puuttuu

Säähavainnot ja -ennusteet yli 4000 lentoasemalta (METAR- ja TAF-raportit).

Käytössä olevat sääasemat on merkitty karttaan keltaisilla ja punaisilla pisteillä.

Aseta hiiri pisteen päälle nähdäksesi sääaseman nimen.

Klikkaa sitten nähdäksesi säähavainnot ja -ennusteet.

Kartan vaihtaminen: klikkaa mustalla rastilla varustettuja vihreitä pisteitä, niin voit zoomata sisään; viivalla varustettua vihreää pistettä, niin voit zoomata ulos tai vihreitä nuolia, niin pääset viereisille kartoille.


METAR-TAF: